Regional Weather Roundup
Issued by NWS

Home | Current Version | Previous Version | Graphics & Text | Print | Product List | Glossary On
Versions: 1 2 3 4 5 6 7 8 9 10 11 12 13 14 15 16 17 18 19 20 21 22 23 24 25 26 27 28 29 30 31 32 33 34 35 36 37 38 39 40 41 42 43 44 45 46 47 48 49 50
000
ASUS45 KTFX 302010
RWRMT
MONTANA REGIONAL WEATHER ROUNDUP
NATIONAL WEATHER SERVICE GREAT FALLS MT
200 PM MDT FRI SEP 30 2016

NOTE: "FAIR" INDICATES FEW OR NO CLOUDS BELOW 12000 FEET WITH NO
SIGNIFICANT WEATHER AND/OR OBSTRUCTIONS TO VISIBILITY.

MTZ001>007-043-302100-
WEST OF THE DIVIDE

CITY           SKY/WX    TMP DP  RH WIND       PRES   REMARKS
KALISPELL      SUNNY     72  50  45 E5        29.98F
MISSOULA       SUNNY     79  43  27 SE12      29.97F
BUTTE          SUNNY     71  36  27 VRB5      30.13F
MULLAN PASS    SUNNY     64  38  38 VRB7      30.09F
ANACONDA         N/A     75  37  25 S14G24    30.07F
DEER LODGE       N/A     77  39  25 S9        30.08F
EUREKA           N/A     64  54  68 NW6       29.98F
HAMILTON         N/A     81  39  22 SE10      29.99F
LIBBY            N/A     68  54  60 N3        29.95F
PLAINS           N/A     78  48  34 CALM      29.96F
RONAN            N/A     75  51  42 CALM      30.03F
THOMPSON FALLS   N/A     77  49  37 CALM      29.97F
$$

MTZ008-052>055-302100-
SOUTHWEST MONTANA

CITY           SKY/WX    TMP DP  RH WIND       PRES   REMARKS
BOZEMAN        SUNNY     75  44  33 CALM      30.09F
DILLON         SUNNY     73  40  30 SW6       30.12F
W YELLOWSTONE  MOSUNNY   66  41  39 S14       30.25F
ENNIS          SUNNY     73  41  31 S10       30.18F
THREE FORKS      N/A     73  36  26 CALM      30.07F
TWIN BRIDGES     N/A     71  43  36 SW2       30.10F
$$

MTZ009-010-012-014-046-048-049-054-302100-
EAST SLOPES AND CENTRAL MONTANA

CITY           SKY/WX    TMP DP  RH WIND       PRES   REMARKS
CUT BANK       SUNNY     71  46  40 SE7       30.01F
GREAT FALLS    SUNNY     76  42  29 VRB3      30.01F
MALMSTROM AFB  SUNNY     74  43  32 W2        30.01F
HELENA         SUNNY     78  46  32 N8        30.03F
AUGUSTA          N/A     73  40  30 S6        30.04F
BOWMANS CRNR     N/A     73  42  32 SE16      30.01F
CHOTEAU          N/A     73  46  38 VRB5G12   30.04F
CONRAD           N/A     74  51  44 NE3       30.04F
FAIRFIELD        N/A     74  46  36 E5        30.01F
POWER            N/A     71  46  40 S7        30.02F
RAYNESFORD       N/A     75  47  36 NW10      30.03F
$$

MTZ011-013-016-021-045-047-050-051-302100-
NORTH CENTRAL MONTANA

CITY           SKY/WX    TMP DP  RH WIND       PRES   REMARKS
HAVRE          SUNNY     74  54  49 NW8       29.99F
LEWISTOWN      CLOUDY    77  45  32 NW7       30.04F
N BAR RANCH      N/A     75  45  33 NW8       30.07F
CHINOOK          N/A     73  55  53 W9        29.97F
DENTON           N/A     74  49  41 N6        29.98F
GEYSER           N/A     73  40  30 S6        30.04F
GRASS RANGE      N/A     76  48  37 E5        29.99F HAZE
JUDITH GAP       N/A     75  43  31 W3G20     30.05F
ROY              N/A     74  52  45 MISG      30.00F
STANFORD         N/A     76  46  34 N7        30.04F
WINIFRED         N/A     73  48  42 MISG      30.02F
$$

MTZ017>020-022>027-061-062-302100-
NORTHEAST MONTANA

CITY           SKY/WX    TMP DP  RH WIND       PRES   REMARKS
GLASGOW        CLOUDY    73  50  44 S8        29.93F
JORDAN           N/A     81  53  37 VRB3      29.94F
SIDNEY         CLOUDY    66  53  63 NE3       29.96F
WOLF POINT     MOSUNNY   73  50  44 VRB5      29.94F
PLENTYWOOD       N/A     72  50  46 E9        29.97F
POPLAR           N/A     70  52  52 CALM      29.95F
SCOBEY           N/A     74  49  41 E7        29.95F
$$

MTZ028>42-056>058-302100-
SOUTHCENTRAL AND SOUTHEAST MONTANA

CITY           SKY/WX    TMP DP  RH WIND       PRES   REMARKS
BAKER          SUNNY     74  51  44 S9        30.01F
BILLINGS       MOSUNNY   79  44  28 SW9       30.01F
LIVINGSTON     SUNNY     78  41  26 SW7       30.07F
MILES CITY     SUNNY     81  50  33 SW9       29.95F
BIG TIMBER     SUNNY     77  43  29 W16G24    30.08F
EKALAKA          N/A     75  50  41 S3        30.00F
FORSYTH          N/A     79  48  34 W6        29.96F
HARLOWTON        N/A     77  42  28 W15       30.04F
LAUREL           N/A     80  46  30 S7        30.01F
ROUNDUP          N/A     80  46  30 E3        29.92F
$$

REGIONAL REPORTS...DAKOTAS

CITY           SKY/WX    TMP DP  RH WIND       PRES   REMARKS
WILLISTON      CLOUDY    63  50  62 S14       30.00F
MINOT          CLOUDY    63  51  65 E8        30.09S
DICKINSON      CLOUDY    65  45  48 SE17      30.02F
BEACH            N/A     72  50  46 SE12      30.03F
CROSBY         PTSUNNY   66  48  52 SE16      30.02S
WATFORD CITY   PTSUNNY   57  52  82 E16       30.01F
BISMARCK       LGT RAIN  71  47  42 SE23      30.09F
GRAND FORKS    PTSUNNY   69  50  50 SE15G24   30.22F
FARGO          MOSUNNY   70  48  45 S9        30.22F
BUFFALO SD       N/A     77  47  34 SE14G22   29.96F
RAPID CITY     PTSUNNY   71  49  45 SE8       30.04F
$$

REGIONAL REPORTS...WYOMING/IDAHO/WASHINGTON

CITY           SKY/WX    TMP DP  RH WIND       PRES   REMARKS
GILLETTE       PTSUNNY   74  49  41 NE6       30.06F
SHERIDAN       SUNNY     79  47  32 CALM      30.04F
BUFFALO WY     MOSUNNY   74  43  32 E5        30.11F
CODY           PTSUNNY   77  45  32 VRB6      30.12F
YELLOWSTONE LA   N/A     55  46  71 VRB3      30.34F
IDAHO FALLS    MOSUNNY   72  48  42 W8        30.17F
SALMON         SUNNY     73  46  38 NW5       30.06F
BOISE          SUNNY     84  33  16 VRB6      29.99F
SPOKANE        LGT RAIN  70  44  39 S5        29.96F
$$

REGIONAL REPORTS...ALBERTA

CITY           SKY/WX    TMP DP  RH WIND       PRES   REMARKS
EDMONTON       CLOUDY    50  48  93 NE13      30.04F
CALGARY        MOSUNNY   57  46  67 VRB2      29.98F
LETHBRIDGE     MOSUNNY   75  43  31 SW6       29.94F
MEDICINE HAT   PTSUNNY   66  54  63 VRB3      29.95R
WATERTON GATE    N/A     73  41  31 SW13G22     N/A
CARDSTON         N/A     75  43  31 E2          N/A
MILK RIVER       N/A     73  45  35 E6          N/A
$$

REGIONAL REPORTS...SASKATCHEWAN

CITY           SKY/WX    TMP DP  RH WIND       PRES   REMARKS
SWIFT CURRENT  SUNNY     66  52  59 NW9       29.97F
REGINA         MOSUNNY   72  50  46 SE16G23   29.97S
SASKATOON      MOSUNNY   68  50  52 VRB3      29.97F
CYPRESS HILLS    N/A     68  48  49 NW6         N/A
VAL MARIE        N/A     75  48  38 SE5         N/A
$$



USA.gov is the U.S. government's official web portal to all federal, state and local government web resources and services.